Find SURCAL 5

NORAD ID: 1577 Int'l Des: 1965-065 Owner: NRL Country: US operational
LEOCIRCULARRETROGRADE

Live Position

Loading 3D Globe...

About SURCAL 5

Description loading...

Upcoming Passes

Passes for default location (London). Set your location on the main map for personalized predictions.

Altitude History

Loading altitude history...

Two-Line Element Set

1 1577U 65065J 26104.02947954 .00000072 00000-0 12225-3 0 9999
2 1577 90.0306 211.8905 0067938 284.8523 256.4502 13.36245115954082
Epoch: Apr 14, 2026 • Age: 14 hours

Current Status

Altitude 1168.9 km
Velocity 7.25 km/s
Sub-Earth Point 39.02°N, 34.17°W
Type other

Most Searched